FW7305 Weather Reports


time (UTC)temp
C
wind
direction
speed
KPH
gust
KPH
rain 1hr
cm
rain 24hr
cm
rain mn
cm
humidity
%
barometer
mb
20260507235157 9 23 1.6 1.6 0.00 0.00 0.00 50 1007.4
20260507234654 9 46 3.2 3.2 0.00 0.00 0.00 48 1007.4
20260507234150 9 325 0.0 0.0 0.00 0.00 0.00 51 1007.3
20260507233647 9 318 1.6 3.2 0.00 0.00 0.00 48 1007.2
20260507233146 10 138 0.0 1.6 0.00 0.00 0.00 50 1007.3
20260507232642 10 238 1.6 3.2 0.00 0.00 0.00 50 1007.1
20260507232139 10 276 1.6 1.6 0.00 0.00 0.00 49 1007.2
20260507231635 10 195 1.6 1.6 0.00 0.00 0.00 48 1007.2
20260507231133 10 166 0.0 0.0 0.00 0.00 0.00 49 1007.2
20260507230629 10 51 1.6 3.2 0.00 0.00 0.00 46 1007.4
20260507230126 10 206 3.2 4.8 0.00 0.00 0.00 46 1007.3
20260507225626 10 346 1.6 3.2 0.00 0.00 0.00 46 1007.3
20260507225123 10 353 1.6 3.2 0.00 0.00 0.00 49 1007.3
20260507224618 10 312 6.4 8.0 0.00 0.00 0.00 48 1007.1
20260507224115 10 319 4.8 4.8 0.00 0.00 0.00 50 1007.3
20260507223611 10 7 4.8 11.3 0.00 0.00 0.00 48 1007.2
20260507223108 10 28 4.8 4.8 0.00 0.00 0.00 48 1007.1
20260507222605 10 309 4.8 4.8 0.00 0.00 0.00 47 1007.0
20260507222101 9 348 3.2 4.8 0.00 0.00 0.00 50 1007.2
20260507221558 10 331 6.4 8.0 0.00 0.00 0.00 50 1007.2
20260507221055 10 303 6.4 9.7 0.00 0.00 0.00 48 1007.2
20260507220552 10 49 1.6 1.6 0.00 0.00 0.00 43 1006.9
20260507220049 11 255 3.2 3.2 0.00 0.00 0.00 41 1006.6
20260507215545 11 279 6.4 8.0 0.00 0.00 0.00 38 1007.0
20260507215044 11 268 8.0 12.9 0.00 0.00 0.00 37 1006.6
20260507214540 11 239 4.8 8.0 0.00 0.00 0.00 39 1006.6
20260507214036 12 240 16.1 22.5 0.00 0.00 0.00 37 1006.7
20260507213533 12 247 3.2 3.2 0.00 0.00 0.00 39 1006.5
20260507213030 12 222 9.7 11.3 0.00 0.00 0.00 37 1006.6
20260507212526 11 280 3.2 3.2 0.00 0.00 0.00 40 1006.6
20260507212023 11 269 12.9 14.5 0.00 0.00 0.00 35 1006.5
20260507211520 11 281 8.0 12.9 0.00 0.00 0.00 36 1006.6
20260507211016 11 359 8.0 11.3 0.00 0.00 0.00 36 1006.5
20260507210513 11 265 9.7 14.5 0.00 0.00 0.00 37 1006.4
20260507210010 12 301 4.8 4.8 0.00 0.00 0.00 38 1006.4
20260507205507 12 209 3.2 4.8 0.00 0.00 0.00 40 1006.2
20260507205003 12 263 4.8 4.8 0.00 0.00 0.00 37 1006.5
20260507204459 12 177 3.2 8.0 0.00 0.00 0.00 39 1006.5
20260507203957 12 340 4.8 4.8 0.00 0.00 0.00 40 1006.3
20260507203454 11 70 3.2 8.0 0.00 0.00 0.00 39 1006.6
20260507202951 11 332 6.4 8.0 0.00 0.00 0.00 37 1006.1
20260507202447 11 288 4.8 8.0 0.00 0.00 0.00 40 1006.4
20260507201943 11 10 4.8 4.8 0.00 0.00 0.00 40 1006.3
20260507201438 11 273 17.7 22.5 0.00 0.00 0.00 36 1006.2
20260507200936 11 261 3.2 4.8 0.00 0.00 0.00 41 1006.4
20260507200431 11 300 4.8 4.8 0.00 0.00 0.00 38 1006.3
20260507195927 11 236 3.2 8.0 0.00 0.00 0.00 38 1006.5
20260507195425 12 231 9.7 12.9 0.00 0.00 0.00 37 1006.4
20260507194922 12 270 6.4 9.7 0.00 0.00 0.00 37 1006.3
20260507194418 12 254 6.4 9.7 0.00 0.00 0.00 38 1006.5
20260507193914 11 258 11.3 12.9 0.00 0.00 0.00 37 1006.4
20260507193412 11 228 6.4 8.0 0.00 0.00 0.00 38 1006.2
20260507192909 11 319 9.7 12.9 0.00 0.00 0.00 37 1006.5
20260507192404 11 323 11.3 14.5 0.00 0.00 0.00 37 1006.5
20260507191901 11 192 1.6 1.6 0.00 0.00 0.00 43 1006.4
20260507191357 11 324 11.3 14.5 0.00 0.00 0.00 39 1006.3
20260507190854 11 353 4.8 4.8 0.00 0.00 0.00 40 1006.4
20260507190352 11 298 4.8 9.7 0.00 0.00 0.00 41 1006.6
20260507185851 11 217 6.4 9.7 0.00 0.00 0.00 40 1006.5
20260507185348 11 254 6.4 16.1 0.00 0.00 0.00 39 1006.4
20260507184844 11 301 11.3 22.5 0.00 0.00 0.00 38 1006.5
20260507184343 11 228 12.9 17.7 0.00 0.00 0.00 38 1006.4
20260507183839 11 261 11.3 20.9 0.00 0.00 0.00 38 1006.4
20260507183336 11 292 11.3 14.5 0.00 0.00 0.00 38 1006.6
20260507182834 10 244 12.9 17.7 0.00 0.00 0.00 39 1006.5
20260507182329 10 264 6.4 8.0 0.00 0.00 0.00 39 1006.2
20260507181826 10 16 8.0 11.3 0.00 0.00 0.00 41 1006.3
20260507181322 10 244 4.8 8.0 0.00 0.00 0.00 41 1006.3
20260507180819 11 243 11.3 22.5 0.00 0.00 0.00 40 1006.5
20260507180316 11 263 19.3 27.4 0.00 0.00 0.00 35 1006.2
20260507175811 11 239 11.3 22.5 0.00 0.00 0.00 39 1006.5
20260507175308 11 323 12.9 14.5 0.00 0.00 0.00 36 1006.3
20260507174805 12 261 16.1 20.9 0.00 0.00 0.00 36 1006.3
20260507174304 12 205 4.8 8.0 0.00 0.00 0.00 39 1006.5
20260507173801 12 248 14.5 16.1 0.00 0.00 0.00 38 1006.3
20260507173258 12 234 6.4 11.3 0.00 0.00 0.00 40 1006.2
20260507172754 11 224 14.5 16.1 0.00 0.00 0.00 39 1006.2
20260507172251 11 245 8.0 14.5 0.00 0.00 0.00 39 1006.1
20260507171746 11 265 16.1 22.5 0.00 0.00 0.00 39 1006.4
20260507171244 11 262 11.3 16.1 0.00 0.00 0.00 39 1006.3
20260507170740 11 248 14.5 25.7 0.00 0.00 0.00 38 1006.2
20260507170237 11 238 16.1 20.9 0.00 0.00 0.00 38 1006.5
20260507165733 11 259 8.0 12.9 0.00 0.00 0.00 41 1006.4
20260507165229 11 232 9.7 16.1 0.00 0.00 0.00 38 1006.3
20260507164725 11 257 25.7 32.2 0.00 0.00 0.00 40 1006.4
20260507164223 11 223 11.3 17.7 0.00 0.00 0.00 43 1006.1
20260507163720 11 237 14.5 22.5 0.00 0.00 0.00 44 1006.4
20260507163218 11 218 8.0 11.3 0.00 0.00 0.00 48 1006.3
20260507162713 10 230 6.4 9.7 0.00 0.00 0.00 49 1006.3
20260507162210 11 262 11.3 17.7 0.00 0.00 0.00 46 1006.5
20260507161706 11 250 16.1 22.5 0.00 0.00 0.00 47 1006.6
20260507161203 10 255 11.3 14.5 0.00 0.00 0.00 48 1006.4
20260507160658 10 329 8.0 11.3 0.00 0.00 0.00 49 1006.4
20260507160155 10 211 11.3 14.5 0.00 0.00 0.00 48 1006.7
20260507155651 10 278 16.1 22.5 0.00 0.00 0.00 48 1006.5
20260507155142 10 263 19.3 22.5 0.00 0.00 0.00 49 1006.5
20260507154639 10 236 12.9 17.7 0.00 0.00 0.00 50 1006.6
20260507154137 10 246 35.4 40.2 0.00 0.00 0.00 48 1006.7
20260507153633 10 231 11.3 17.7 0.00 0.00 0.00 51 1006.6
20260507153129 10 262 11.3 17.7 0.00 0.00 0.00 50 1006.6
20260507152626 10 9 16.1 29.0 0.00 0.00 0.00 52 1006.6
20260507152121 10 303 14.5 24.1 0.00 0.00 0.00 51 1006.7
20260507151618 10 241 9.7 11.3 0.00 0.00 0.00 52 1006.8
20260507151115 10 238 8.0 11.3 0.00 0.00 0.00 52 1006.7
20260507150612 9 271 12.9 16.1 0.00 0.00 0.00 51 1006.6
20260507150109 10 259 14.5 20.9 0.00 0.00 0.00 50 1006.9
20260507145604 9 207 14.5 24.1 0.00 0.00 0.00 52 1006.7
20260507145102 8 293 14.5 20.9 0.00 0.00 0.00 53 1007.0
20260507144558 9 258 17.7 29.0 0.00 0.00 0.00 52 1006.8
20260507144056 9 178 12.9 22.5 0.00 0.00 0.00 52 1006.8
20260507143552 9 286 11.3 14.5 0.00 0.00 0.00 52 1006.9
20260507143050 9 304 11.3 12.9 0.00 0.00 0.00 53 1006.9
20260507142550 8 202 6.4 12.9 0.00 0.00 0.00 53 1006.9
20260507142047 8 121 12.9 16.1 0.00 0.00 0.00 54 1007.1
20260507141543 8 236 16.1 20.9 0.00 0.00 0.00 54 1007.0
20260507141040 8 256 12.9 17.7 0.00 0.00 0.00 54 1006.7
20260507140537 8 263 16.1 20.9 0.00 0.00 0.00 54 1006.8
20260507140034 8 187 17.7 29.0 0.00 0.00 0.00 54 1006.8
20260507135531 8 276 17.7 22.5 0.00 0.00 0.00 54 1006.7
20260507135029 8 270 17.7 32.2 0.00 0.00 0.00 53 1007.0
20260507134525 8 182 9.7 14.5 0.00 0.00 0.00 57 1006.7
20260507134020 8 249 12.9 14.5 0.00 0.00 0.00 57 1006.9
20260507133517 8 305 16.1 17.7 0.00 0.00 0.00 56 1006.7
20260507133015 8 242 12.9 17.7 0.00 0.00 0.00 56 1006.7
20260507132511 8 285 17.7 25.7 0.00 0.00 0.00 55 1007.0
20260507132008 8 252 9.7 14.5 0.00 0.00 0.00 56 1006.9
20260507131505 7 272 14.5 20.9 0.00 0.00 0.00 56 1006.9
20260507131002 8 266 6.4 8.0 0.00 0.00 0.00 56 1007.0
20260507130459 7 226 19.3 25.7 0.00 0.00 0.00 56 1007.0
20260507125957 7 248 14.5 20.9 0.00 0.00 0.00 60 1006.9
20260507125455 7 263 12.9 16.1 0.00 0.00 0.00 60 1006.9
20260507124952 7 238 9.7 11.3 0.00 0.00 0.00 61 1006.9
20260507124448 7 250 9.7 14.5 0.00 0.00 0.00 61 1007.1
20260507123947 7 266 9.7 12.9 0.00 0.00 0.00 60 1007.2
20260507123444 7 248 11.3 17.7 0.00 0.00 0.00 61 1007.4
20260507122940 7 267 11.3 14.5 0.00 0.00 0.00 61 1007.2
20260507122436 7 285 12.9 20.9 0.00 0.00 0.00 60 1007.0
20260507121932 7 259 17.7 22.5 0.00 0.00 0.00 62 1007.0
20260507121427 7 297 16.1 20.9 0.00 0.00 0.00 73 1007.5
20260507120924 7 250 9.7 12.9 0.00 0.00 0.00 77 1007.1
20260507120420 7 247 6.4 8.0 0.00 0.00 0.00 79 1007.2
20260507115917 7 228 6.4 9.7 0.00 0.00 0.00 80 1007.0
20260507115413 7 257 9.7 11.3 0.00 0.00 0.00 78 1006.8
20260507114909 7 270 11.3 14.5 0.00 0.00 0.00 79 1007.1
20260507114406 7 264 12.9 16.1 0.00 0.00 0.00 79 1007.0
20260507113903 7 259 14.5 20.9 0.00 0.00 0.00 80 1007.1
20260507113400 7 278 9.7 12.9 0.00 0.00 0.00 79 1006.9
20260507112857 7 265 17.7 22.5 0.00 0.00 0.00 79 1007.0
20260507112354 7 238 6.4 8.0 0.00 0.00 0.00 79 1006.9
20260507111852 7 243 8.0 9.7 0.00 0.00 0.00 80 1007.0
20260507111349 7 203 4.8 8.0 0.00 0.00 0.00 81 1007.0
20260507110845 7 182 3.2 8.0 0.00 0.00 0.00 81 1006.6
20260507110341 7 283 9.7 11.3 0.00 0.00 0.00 81 1006.6
20260507105838 7 263 17.7 20.9 0.00 0.00 0.00 81 1006.5
20260507105335 7 253 11.3 16.1 0.00 0.00 0.00 82 1006.4
20260507104832 7 239 12.9 16.1 0.00 0.00 0.00 82 1006.5
20260507104328 7 247 8.0 12.9 0.00 0.00 0.00 82 1006.6
20260507103824 7 282 4.8 8.0 0.00 0.00 0.00 81 1006.3
20260507103321 7 218 6.4 8.0 0.00 0.00 0.00 82 1006.2
20260507102817 7 259 9.7 14.5 0.00 0.00 0.00 83 1006.4
20260507102314 7 246 12.9 16.1 0.00 0.00 0.00 83 1006.3
20260507101810 7 237 9.7 11.3 0.00 0.00 0.00 83 1006.3
20260507101305 7 206 11.3 12.9 0.00 0.00 0.00 84 1006.4
20260507100802 7 280 11.3 12.9 0.00 0.00 0.00 84 1006.6
20260507100300 7 208 9.7 14.5 0.00 0.00 0.00 83 1006.5
20260507095758 7 252 16.1 20.9 0.00 0.00 0.00 83 1006.7
20260507095254 7 207 8.0 9.7 0.00 0.00 0.00 84 1006.4
20260507094751 7 265 8.0 12.9 0.00 0.00 0.00 83 1006.5
20260507094248 7 223 11.3 14.5 0.00 0.00 0.00 84 1006.4
20260507093745 7 272 6.4 11.3 0.00 0.00 0.00 84 1006.5
20260507093244 7 259 11.3 17.7 0.00 0.00 0.00 84 1006.2
20260507092741 7 266 9.7 12.9 0.00 0.00 0.00 84 1006.2
20260507092237 7 210 3.2 4.8 0.00 0.00 0.00 84 1006.3
20260507091734 7 242 6.4 8.0 0.00 0.00 0.00 84 1006.3
20260507091230 7 280 6.4 8.0 0.00 0.00 0.00 84 1006.4
20260507090725 7 207 8.0 9.7 0.00 0.00 0.00 85 1006.2
20260507090222 7 184 3.2 3.2 0.00 0.00 0.00 85 1006.4
20260507085720 7 179 3.2 4.8 0.00 0.00 0.00 85 1006.2
20260507085216 7 235 4.8 8.0 0.00 0.00 0.00 85 1006.4
20260507084713 7 266 9.7 12.9 0.00 0.00 0.00 85 1006.3
20260507084210 7 166 1.6 3.2 0.00 0.00 0.00 85 1006.4
20260507083707 7 197 1.6 3.2 0.00 0.00 0.00 85 1006.7
20260507083204 7 198 3.2 3.2 0.00 0.00 0.00 85 1006.4
20260507082700 7 173 3.2 3.2 0.00 0.00 0.00 85 1006.6
20260507082156 6 239 4.8 4.8 0.00 0.00 0.00 85 1006.7
20260507081653 6 200 4.8 8.0 0.00 0.00 0.00 85 1006.6
20260507081149 6 296 11.3 14.5 0.00 0.00 0.00 86 1006.8
20260507080646 6 209 4.8 8.0 0.00 0.00 0.00 86 1006.7
20260507080142 6 172 3.2 3.2 0.00 0.00 0.00 86 1006.9
20260507075643 6 166 3.2 4.8 0.00 0.00 0.00 87 1006.8
20260507075139 6 214 3.2 3.2 0.00 0.00 0.00 87 1006.9
20260507074636 6 165 4.8 4.8 0.00 0.00 0.00 87 1006.8
20260507074134 6 195 4.8 8.0 0.00 0.00 0.00 87 1006.8
20260507073630 6 196 3.2 3.2 0.00 0.00 0.00 87 1006.6
20260507073126 6 228 8.0 9.7 0.00 0.00 0.00 86 1006.7
20260507072624 6 199 4.8 8.0 0.00 0.00 0.00 87 1006.8
20260507072121 6 181 3.2 3.2 0.00 0.00 0.00 87 1006.8
20260507071619 6 163 0.0 1.6 0.00 0.00 0.00 87 1006.8
20260507071115 6 167 3.2 3.2 0.00 0.00 0.00 86 1006.8
20260507070612 6 205 11.3 12.9 0.00 0.00 0.00 86 1006.6
20260507070109 6 194 8.0 9.7 0.00 0.00 0.00 87 1007.0
20260507065605 6 174 4.8 4.8 0.00 0.00 0.00 87 1006.9
20260507065057 6 191 3.2 3.2 0.00 0.00 0.00 87 1006.7
20260507064555 6 182 1.6 1.6 0.00 0.00 0.00 87 1006.7
20260507064053 6 180 1.6 1.6 0.00 0.00 0.00 86 1007.1
20260507063550 6 243 1.6 3.2 0.00 0.00 0.00 86 1006.8
20260507063047 6 217 1.6 3.2 0.00 0.00 0.00 87 1006.8
20260507062544 6 223 4.8 4.8 0.00 0.00 0.00 86 1006.8
20260507062042 6 171 4.8 4.8 0.00 0.00 0.00 86 1007.1
20260507061539 6 197 0.0 1.6 0.00 0.00 0.00 85 1007.0
20260507061037 6 261 8.0 9.7 0.00 0.00 0.00 84 1006.9
20260507060535 6 222 4.8 4.8 0.00 0.00 0.00 84 1006.9
20260507060031 6 223 4.8 4.8 0.00 0.00 0.00 84 1007.0
20260507055531 6 163 3.2 4.8 0.00 0.00 0.00 85 1007.2
20260507055028 6 194 3.2 3.2 0.00 0.00 0.00 84 1007.1
20260507054524 6 245 8.0 11.3 0.00 0.00 0.00 85 1007.1
20260507054021 6 249 1.6 1.6 0.00 0.00 0.00 85 1007.4
20260507053519 6 211 1.6 3.2 0.00 0.00 0.00 85 1007.1
20260507053018 6 207 4.8 4.8 0.00 0.00 0.00 85 1007.2
20260507052515 6 210 3.2 3.2 0.00 0.00 0.00 85 1007.5
20260507052011 6 169 3.2 8.0 0.00 0.00 0.00 85 1007.5
20260507051509 6 212 1.6 3.2 0.00 0.00 0.00 85 1007.5
20260507051006 6 226 3.2 3.2 0.00 0.00 0.00 84 1007.6
20260507050502 6 202 4.8 4.8 0.00 0.00 0.00 83 1007.5
20260507045959 6 181 1.6 3.2 0.00 0.00 0.00 83 1007.6
20260507045455 6 182 4.8 4.8 0.00 0.00 0.00 84 1008.0
20260507044953 6 170 1.6 1.6 0.00 0.00 0.00 84 1007.8
20260507044449 6 255 4.8 4.8 0.00 0.00 0.00 83 1007.8
20260507043945 6 195 1.6 1.6 0.00 0.00 0.00 83 1008.0
20260507043442 6 175 1.6 3.2 0.00 0.00 0.00 83 1008.1
20260507042938 6 232 3.2 3.2 0.00 0.00 0.00 83 1008.1
20260507042435 6 181 3.2 3.2 0.00 0.00 0.00 85 1008.0
20260507041931 6 230 3.2 4.8 0.00 0.00 0.00 84 1008.1
20260507041428 6 232 6.4 8.0 0.00 0.00 0.00 84 1008.2
20260507040925 6 219 3.2 8.0 0.00 0.00 0.00 84 1008.3
20260507040421 6 206 3.2 3.2 0.00 0.00 0.00 83 1008.1
20260507035917 6 179 4.8 8.0 0.00 1.04 1.04 82 1008.1
20260507035413 6 205 6.4 8.0 0.00 1.04 1.04 82 1008.2
20260507034910 6 183 1.6 1.6 0.00 1.04 1.04 82 1008.4
20260507034407 6 242 6.4 8.0 0.00 1.04 1.04 81 1008.3
20260507033905 6 194 3.2 4.8 0.00 1.04 1.04 81 1008.3
20260507033403 7 177 3.2 3.2 0.00 1.04 1.04 81 1008.5
20260507032900 7 287 3.2 3.2 0.00 1.04 1.04 82 1008.2
20260507032356 7 234 3.2 8.0 0.00 1.04 1.04 82 1008.8
20260507031852 7 208 6.4 8.0 0.00 1.04 1.04 82 1008.4
20260507031349 7 243 6.4 8.0 0.00 1.04 1.04 81 1008.6
20260507030846 7 208 6.4 9.7 0.00 1.04 1.04 81 1008.2
20260507030344 7 195 3.2 3.2 0.00 1.04 1.04 81 1008.7
20260507025840 7 205 3.2 3.2 0.00 1.04 1.04 81 1008.6
20260507025338 7 209 3.2 3.2 0.00 1.04 1.04 81 1008.6
20260507024835 7 220 3.2 4.8 0.00 1.04 1.04 81 1008.6
20260507024332 7 266 4.8 4.8 0.00 1.04 1.04 80 1008.6
20260507023828 7 247 3.2 8.0 0.00 1.04 1.04 80 1008.8
20260507023325 7 263 4.8 4.8 0.00 1.04 1.04 80 1008.4
20260507022822 7 269 6.4 9.7 0.00 1.04 1.04 80 1008.8
20260507022319 7 261 6.4 9.7 0.00 1.04 1.04 80 1008.7
20260507021815 7 284 4.8 4.8 0.00 1.04 1.04 80 1009.0
20260507021311 7 257 4.8 4.8 0.00 1.04 1.04 79 1008.8
20260507020809 7 225 4.8 4.8 0.00 1.04 1.04 79 1008.8
20260507020305 7 263 6.4 8.0 0.00 1.04 1.04 78 1008.9
20260507015803 7 220 4.8 4.8 0.00 1.04 1.04 78 1009.0
20260507015300 7 201 1.6 3.2 0.00 1.04 1.04 78 1009.0
20260507014757 7 193 1.6 1.6 0.00 1.04 1.04 77 1009.1
20260507014253 7 261 4.8 4.8 0.00 1.04 1.04 75 1009.2
20260507013749 7 287 6.4 8.0 0.00 1.04 1.04 74 1009.0
20260507013247 7 263 4.8 4.8 0.00 1.04 1.04 73 1008.9
20260507012744 7 248 4.8 4.8 0.00 1.04 1.04 75 1008.8
20260507012244 7 197 4.8 4.8 0.00 1.04 1.04 77 1008.9
20260507011743 7 220 3.2 3.2 0.00 1.04 1.04 79 1009.0
20260507011239 7 215 3.2 3.2 0.00 1.04 1.04 81 1009.1
20260507010738 7 168 1.6 3.2 0.00 1.04 1.04 81 1008.9
20260507010234 7 185 1.6 1.6 0.00 1.04 1.04 82 1009.0
20260507005732 7 166 0.0 1.6 0.00 1.04 1.04 81 1008.7
20260507005229 7 180 1.6 1.6 0.00 1.04 1.04 81 1008.6
20260507004725 7 187 0.0 1.6 0.00 1.04 1.04 81 1008.6
20260507004223 7 167 0.0 1.6 0.00 1.04 1.04 83 1008.7
20260507003719 7 181 1.6 1.6 0.00 1.04 1.04 83 1008.6
20260507003214 7 175 0.0 1.6 0.00 1.04 1.04 82 1008.3
20260507002710 7 206 1.6 1.6 0.00 1.04 1.04 82 1008.5
20260507002207 7 178 1.6 1.6 0.00 1.04 1.04 82 1008.4
20260507001703 7 192 1.6 1.6 0.00 1.04 1.04 82 1008.2
20260507001201 7 246 3.2 3.2 0.00 1.04 1.04 81 1008.6
20260507000657 7 191 1.6 1.6 0.00 1.04 1.04 82 1008.4
20260507000153 7 171 0.0 0.0 0.00 1.04 1.04 81 1008.4
20260506235650 7 173 0.0 1.6 0.00 1.04 1.04 81 1008.4